• Join FlightAware (Why Join?)
  • Login
  • US Flag 
03:44PM EDT


 

Airport Tracker/Info


-or-


 

Live Flight TrackerFlight Track Log ✈ SKW6287 ✈ 05-Jul-2013 ✈ KSBA - KSFO

Flight Track Log - Related Links

Times and Time Zones

All times are in EDT time to prevent confusion due to time zone crossing. See the SKW6287 flight status page for this flight to view local times or setup timezone preferences in your user account.

Time Position Orientation Groundspeed Altitude Reporting Facility
EDT Latitude Longitude Course Direction KTS MPH feet Rate Location/Type
07:34PM 34.4225 -119.9300 266° West 180 207 3,100  Level Los Angeles Center
07:35PM 34.4192 -119.9931 266° West 185 213 5,300 1,860 Climbing Los Angeles Center
07:36PM 34.5192 -120.0859 321° Northwest  Level FlightAware Approximate
07:36PM 34.4164 -120.0517 267° West 179 206 7,000  Level Los Angeles Center
07:37PM 34.5790 -120.1457 321° Northwest  Level FlightAware Approximate
07:37PM 34.4597 -120.1050 315° West 198 228 9,000  Level Los Angeles Center
07:38PM 34.6428 -120.1988 328° Northwest  Level FlightAware Approximate
07:38PM 34.5072 -120.1425 327° Northwest 202 232 10,400  Level Los Angeles Center
07:39PM 34.5536 -120.1844 323° Northwest 207 238 12,000 1,320 Climbing Los Angeles Center
07:40PM 34.6011 -120.2239 326° Northwest 212 244 13,200 1,080 Climbing Los Angeles Center
07:41PM 34.6417 -120.2603 324° Northwest 223 257 14,300 1,260 Climbing Los Angeles Center
07:42PM 34.7028 -120.3139 324° Northwest 227 261 15,900 1,500 Climbing Los Angeles Center
07:43PM 34.7653 -120.3667 325° Northwest 231 266 17,400 1,380 Climbing Los Angeles Center
07:44PM 34.8169 -120.4106 325° Northwest 228 262 18,800 1,140 Climbing Los Angeles Center
07:45PM 34.8686 -120.4542 325° Northwest 228 262 19,800 900 Climbing Los Angeles Center
07:46PM 34.9203 -120.5014 323° Northwest 234 269 20,700 780 Climbing Los Angeles Center
07:47PM 34.9736 -120.5531 322° Northwest 243 280 21,500 780 Climbing Los Angeles Center
07:48PM 35.0275 -120.6028 323° Northwest 245 282 22,400 840 Climbing Los Angeles Center
07:49PM 35.0950 -120.6611 325° Northwest 247 284 23,300 780 Climbing Los Angeles Center
07:50PM 35.1508 -120.7119 323° Northwest 250 288 24,000 300 Climbing Los Angeles Center
07:51PM 35.2114 -120.7644 325° Northwest 264 304 24,000  Level Los Angeles Center
07:52PM 35.2739 -120.8197 324° Northwest 277 319 24,000  Level Los Angeles Center
07:53PM 35.3358 -120.8758 324° Northwest 278 320 24,000  Level Los Angeles Center
07:54PM 35.3978 -120.9311 324° Northwest 277 319 24,000  Level Los Angeles Center
07:55PM 35.4614 -120.9856 325° Northwest 277 319 24,000  Level Los Angeles Center
07:56PM 35.5356 -121.0536 323° Northwest 276 318 24,000  Level Los Angeles Center
07:57PM 35.5967 -121.1111 323° Northwest 278 320 24,000  Level Los Angeles Center
07:58PM 35.6300 -121.1431 322° Northwest 279 321 24,000  Level Oakland Center
07:59PM 35.6922 -121.1983 324° Northwest 278 320 24,000  Level Oakland Center
08:00PM 35.7544 -121.2556 323° Northwest 278 320 24,000  Level Oakland Center
08:01PM 35.8297 -121.3242 324° Northwest 280 322 24,000  Level Oakland Center
08:02PM 35.8919 -121.3806 324° Northwest 279 321 24,000  Level Oakland Center
08:03PM 35.9547 -121.4364 324° Northwest 278 320 24,000  Level Oakland Center
08:04PM 36.0161 -121.4944 323° Northwest 279 321 24,000  Level Oakland Center
08:05PM 36.0772 -121.5525 322° Northwest 278 320 24,000  Level Oakland Center
08:06PM 36.1394 -121.6089 324° Northwest 279 321 24,000 -180 Level Oakland Center
08:07PM 36.2031 -121.6606 327° Northwest 276 318 23,700 -540 Descending Oakland Center
08:08PM 36.2778 -121.7019 336° Northwest 288 331 22,900 -840 Descending Oakland Center
08:09PM 36.3564 -121.7397 339° North 299 344 22,000 -1,020 Descending Oakland Center
08:10PM 36.4369 -121.7803 338° Northwest 308 354 20,900 -1,140 Descending Oakland Center
08:11PM 36.5206 -121.8253 337° Northwest 314 361 19,800 -1,140 Descending Oakland Center
08:12PM 36.6017 -121.8681 337° Northwest 317 365 18,700 -1,140 Descending Oakland Center
08:13PM 36.6808 -121.9069 338° Northwest 309 356 17,500 -1,200 Descending Oakland Center
08:14PM 36.7436 -121.9719 320° Northwest 297 342 16,300 -960 Descending Oakland Center
08:15PM 36.7978 -122.0408 314° West 282 325 15,600 -900 Descending Oakland Center
08:16PM 36.8781 -122.0886 335° Northwest 280 322 14,500 -1,020 Descending Oakland Center
08:17PM 36.9539 -122.1133 345° North 280 322 13,600 -840 Descending Oakland Center
08:18PM 37.0331 -122.1328 349° North 288 331 12,800 -840 Descending Oakland Center
08:19PM 37.1153 -122.1497 351° North 297 342 11,900 -900 Descending Oakland Center
08:20PM 37.2019 -122.1753 347° North 316 364 11,000 -900 Descending Oakland Center
08:22PM 37.2889 -122.1939 350° North 317 365 10,100 -1,140 Descending Oakland Center
08:23PM 37.3728 -122.2097 351° North 307 353 8,700 -1,980 Descending Oakland Center
08:24PM 37.4478 -122.1811 17° North 286 329 6,100 -2,760 Descending Oakland Center
08:25PM 37.5211 -122.1853 357° North 270 311 3,100 -3,000 Descending Oakland Center